Wind_Speed
82 85 83 82 80 80 77 81 86 74 71 73 68 66 64 68 69 72 71 76 76 76 71 68 67 70 70 68 66 66 62 63 62 65 62 56 58 68 67 72 72 67 67 75 79
77 80 82 85 82 80 78 80 82 83 81 81 79 74 71 72 71 68 72 74 73 71 71 74 75 74 70 67 70 67 65 63 65 66 65 62 68 68 71 74 72 71 74 76 71
80 81 82 84 87 89 85 83 83 86 84 77 80 86 75 77 71 74 75 72 69 70 71 62 64 68 68 67 73 74 68 65 68 68 69 72 74 73 75 76 77 75 71 76 71
80 83 84 84 85 88 90 86 84 82 83 88 82 78 75 73 67 71 75 81 77 78 74 68 66 67 69 72 80 80 66 66 68 70 73 76 77 70 75 73 73 71 72 73 72
63 72 82 82 86 88 89 90 88 85 83 84 86 81 75 74 68 78 79 83 83 84 82 78 76 76 73 75 77 74 72 70 69 71 75 76 74 72 68 71 68 70 66 73 74
60 63 68 77 83 85 90 92 92 91 89 86 85 80 74 63 73 78 76 77 82 83 77 72 75 78 75 75 75 72 68 67 70 72 76 76 69 62 65 70 62 59 68 73 74
44 54 56 68 74 80 84 90 91 93 94 90 85 81 75 60 76 79 70 69 68 70 69 75 74 70 69 67 66 67 67 65 64 67 67 67 58 56 61 67 61 64 71 78 80
46 46 48 58 58 65 73 81 85 91 95 93 89 83 70 72 75 71 75 69 65 69 69 68 67 65 65 66 68 63 61 61 66 62 65 62 53 57 61 60 66 72 78 82 88
53 55 55 53 68 66 67 71 75 78 89 90 90 84 75 78 75 76 70 68 69 68 66 66 66 66 66 63 63 65 63 62 61 61 59 58 57 59 63 65 74 77 79 80 61
63 62 61 63 63 66 68 68 75 76 77 75 85 84 79 82 81 77 73 72 69 68 67 66 66 65 66 68 68 63 61 56 48 53 57 58 59 62 62 66 71 76 80 77 56
70 71 72 72 69 69 69 69 74 80 75 72 72 74 76 77 77 78 77 74 73 71 67 68 67 63 71 68 65 60 51 43 54 60 61 64 64 65 64 67 68 77 68 56 48
76 76 79 80 80 78 74 76 79 73 75 72 69 64 62 69 68 75 80 76 74 68 72 73 62 64 63 60 55 49 45 54 53 54 59 60 59 59 59 63 64 63 45 50 53
84 86 87 87 85 84 84 84 84 78 65 65 65 63 63 74 64 62 68 70 68 69 68 64 56 65 55 51 51 53 53 61 61 62 62 67 55 56 59 60 60 44 37 44 46
91 94 97 98 95 93 90 92 92 85 72 56 60 61 69 71 59 65 68 64 62 57 57 55 55 53 50 52 60 61 65 59 60 64 61 58 53 59 58 58 42 29 28 35 38
105 105 103 99 102 103 99 94 96 92 82 63 66 65 74 73 67 67 76 71 63 62 61 54 66 58 54 56 55 62 63 63 61 63 57 55 52 55 52 40 29 21 25 29 32
96 100 102 106 106 109 104 103 100 97 82 71 69 70 72 69 75 77 75 71 72 68 59 60 65 55 61 63 63 67 65 63 64 56 49 59 51 55 39 32 23 19 27 27 27
75 80 85 93 104 104 106 108 108 94 78 77 84 81 81 77 77 82 83 81 69 69 62 64 65 66 68 68 65 64 65 63 56 55 57 58 51 44 31 26 18 20 26 31 27
62 66 73 77 84 87 93 106 98 88 88 89 98 97 85 83 82 84 89 85 78 72 72 67 63 62 61 61 63 69 68 58 55 55 59 53 36 28 22 18 15 23 26 30 27
53 56 58 65 71 73 82 83 82 98 101 104 109 102 98 94 94 93 87 82 80 80 77 71 66 71 68 66 66 63 57 56 58 55 47 36 23 24 15 15 18 23 27 31 24
46 48 51 56 58 61 64 67 75 97 115 120 118 110 108 102 96 98 93 75 74 75 76 73 73 73 70 74 69 61 57 56 45 40 32 25 24 15 13 12 16 21 24 28 24
39 40 44 48 50 52 59 64 72 94 113 126 126 117 111 106 101 102 83 76 74 69 69 72 72 69 75 67 60 56 44 36 40 32 27 26 23 15 13 12 16 21 24 25 26
34 35 36 42 44 48 52 57 65 79 99 115 125 119 114 108 104 96 80 78 73 74 70 64 66 68 60 53 49 45 42 42 35 28 27 26 21 15 14 13 16 20 24 25 29
31 30 31 36 38 42 46 52 59 70 87 105 119 125 121 112 102 97 91 88 88 82 72 71 66 62 60 52 48 40 35 36 31 30 24 22 25 14 14 13 17 19 24 24 28
29 27 27 32 34 36 41 48 54 63 76 94 108 122 124 116 106 99 97 95 91 84 76 84 71 61 53 46 43 35 34 34 33 29 30 26 25 13 15 14 17 18 22 25 26
28 26 25 25 30 33 39 45 51 59 70 83 96 110 122 121 113 104 97 95 92 88 81 81 73 60 58 53 46 41 43 42 38 40 31 30 24 15 14 13 15 17 22 24 25
29 26 23 25 28 33 39 43 49 54 65 75 84 99 113 119 118 112 97 95 94 90 84 82 71 64 57 49 46 43 43 38 40 41 33 29 26 22 12 13 12 18 19 22 23
29 24 21 24 27 30 35 41 45 49 61 68 77 92 106 116 117 114 104 99 98 92 89 81 73 70 57 57 51 43 47 43 41 42 35 31 33 23 12 13 11 15 17 21 22
Wind_Direction
238 240 243 246 245 246 242 244 246 239 236 235 239 243 245 246 249 252 248 251 255 255 260 263 262 267 269 272 271 277 279 278 279 286 290 288 288 297 299 297 295 293 296 297 297
243 244 245 247 246 248 248 249 251 251 250 239 238 240 245 246 244 244 248 252 254 257 258 262 266 269 268 268 271 275 276 279 282 284 286 287 294 298 300 299 295 294 299 293 285
244 244 245 246 248 249 248 249 248 249 250 249 250 250 247 246 244 245 250 248 252 256 257 257 259 263 263 264 271 275 278 279 282 282 284 288 293 299 298 297 294 296 294 295 285
242 244 245 245 246 248 249 249 248 249 250 253 251 247 245 249 244 246 245 247 248 253 255 253 252 257 260 265 267 273 276 278 280 281 284 289 293 297 297 292 290 291 287 289 304
249 246 245 246 247 249 249 250 249 249 249 249 251 249 244 245 244 244 249 249 250 253 254 257 262 262 264 265 268 273 273 275 276 280 285 289 293 295 290 290 288 285 294 297 302
254 250 249 248 247 247 248 247 246 248 246 247 247 250 251 252 242 244 244 247 250 253 255 257 258 261 264 265 269 271 273 274 278 284 284 288 292 288 286 286 287 302 305 304 312
266 261 257 254 251 248 248 247 246 248 245 246 246 247 249 247 242 245 245 245 252 252 254 256 259 264 265 269 268 271 274 276 283 283 284 285 285 279 278 277 289 297 307 314 314
261 259 258 249 251 251 252 249 247 247 245 245 245 245 245 247 247 248 246 247 248 251 253 255 261 263 267 267 268 271 273 275 280 281 281 282 273 274 281 293 299 303 308 307 305
274 269 261 252 245 250 255 250 250 249 247 244 245 243 245 249 249 247 249 249 249 251 253 258 261 265 268 269 272 269 277 281 281 281 279 277 268 277 287 299 298 299 303 306 308
272 268 266 265 256 250 249 249 250 248 247 249 246 243 242 246 250 252 252 253 253 253 256 260 262 264 268 268 267 274 276 279 276 274 274 267 270 283 293 298 303 305 305 302 304
266 264 264 262 258 259 255 251 244 243 249 249 247 245 246 244 249 251 253 253 255 257 256 256 261 264 263 266 271 273 276 270 268 267 266 275 281 284 293 304 303 301 303 300 303
264 262 258 256 257 256 253 255 252 243 242 245 247 243 247 246 247 251 250 252 254 254 255 259 261 259 262 268 270 271 263 261 259 267 274 281 293 298 302 302 304 309 310 307 307
260 258 258 256 254 250 251 251 252 248 239 242 241 240 240 246 241 244 251 252 251 252 254 255 250 255 259 260 259 254 251 258 261 274 280 284 298 303 307 308 306 302 302 301 302
264 261 256 253 253 251 246 245 248 249 240 235 242 235 236 240 239 241 243 245 247 246 247 250 252 252 253 249 248 253 259 262 264 267 277 287 299 298 303 304 297 299 313 307 302
268 266 260 252 251 248 246 245 244 245 243 234 239 235 235 237 233 235 236 239 242 240 242 242 246 247 248 251 251 253 258 260 264 270 283 288 295 295 298 292 288 317 309 308 308
266 262 258 254 248 247 246 243 241 239 241 236 237 240 240 238 234 238 239 235 231 236 239 239 242 252 247 247 249 251 256 266 269 277 290 284 291 300 288 281 295 322 316 316 313
267 262 257 253 252 249 243 242 240 241 235 232 233 231 232 233 235 235 235 235 231 231 231 237 236 239 239 243 250 260 265 267 274 277 282 285 288 288 273 277 303 325 338 334 333
268 262 257 254 251 248 246 242 241 236 232 227 230 229 228 230 231 234 233 235 230 236 236 238 241 252 252 249 253 256 259 268 274 278 278 282 276 267 277 308 315 343 345 339 341
271 264 260 255 251 247 244 240 238 230 229 227 229 227 224 221 226 232 231 231 232 233 237 241 246 249 251 254 256 259 264 266 271 277 271 263 247 254 283 315 336 340 343 349 340
271 265 259 255 250 246 242 237 227 225 223 224 227 225 226 222 222 229 231 227 230 232 234 235 238 243 246 250 253 262 267 270 268 250 240 235 244 238 276 307 326 341 344 352 352
274 266 260 256 251 245 238 232 223 220 220 222 225 226 226 223 223 227 229 233 233 233 233 234 235 242 244 247 257 260 258 248 240 228 225 236 237 252 269 307 327 340 351 353 3
280 270 262 256 250 245 239 234 228 223 221 222 224 227 226 224 223 224 224 231 228 234 234 238 237 239 244 245 244 240 231 227 218 216 224 229 228 247 278 308 325 335 351 359 8
287 275 263 256 250 245 239 232 226 223 218 221 221 224 226 226 220 220 216 222 228 227 228 230 229 230 233 229 227 230 226 219 211 214 220 222 229 242 276 305 323 340 354 359 7
290 280 269 261 253 242 237 233 225 221 218 220 218 221 225 226 222 218 215 216 225 225 224 232 226 225 233 232 230 225 229 217 214 214 216 222 226 242 277 297 329 341 353 356 6
297 284 273 258 250 243 236 231 226 220 220 218 217 218 222 224 225 222 215 216 221 225 223 229 235 230 226 228 226 218 219 210 207 216 213 223 229 240 264 297 324 340 349 352 5
305 290 275 259 245 237 235 232 227 222 221 219 217 216 219 220 224 222 216 214 218 223 223 228 228 230 231 229 229 222 225 215 216 217 214 227 238 238 255 287 319 334 341 345 354
312 302 284 263 250 240 235 234 229 223 223 220 216 214 215 218 220 220 217 215 215 218 222 225 226 227 225 230 226 220 220 221 212 216 214 224 240 235 242 276 303 314 336 332 348
Height
10783 10786 10787 10790 10795 10800 10803 10807 10811 10817 10823 10828 10833 10835 10839 10843 10851 10857 10854 10851 10854 10857 10859 10864 10865 10867 10870 10866 10866 10865 10870 10870 10867 10867 10866 10859 10856 10853 10850 10850 10845 10846 10837 10828 10817
10771 10774 10776 10779 10783 10787 10789 10793 10795 10799 10805 10813 10818 10823 10826 10833 10842 10848 10842 10843 10842 10847 10849 10852 10853 10857 10860 10857 10853 10855 10861 10858 10856 10857 10857 10854 10848 10845 10839 10834 10834 10833 10831 10819 10811
10759 10761 10763 10765 10766 10769 10775 10779 10783 10787 10789 10795 10801 10808 10811 10822 10832 10833 10834 10832 10832 10834 10838 10841 10842 10845 10850 10847 10841 10844 10852 10850 10846 10847 10847 10844 10840 10836 10830 10825 10817 10817 10814 10807 10801
10745 10746 10749 10751 10753 10755 10759 10763 10769 10772 10775 10775 10784 10790 10797 10810 10824 10821 10817 10817 10818 10822 10827 10827 10829 10834 10837 10838 10831 10834 10841 10840 10837 10836 10835 10834 10831 10825 10820 10814 10809 10803 10800 10795 10791
10731 10732 10734 10736 10738 10740 10743 10745 10749 10752 10756 10764 10769 10775 10784 10803 10816 10796 10801 10804 10805 10811 10814 10815 10821 10818 10828 10825 10824 10828 10828 10830 10829 10826 10825 10824 10820 10816 10809 10804 10800 10795 10787 10784 10782
10716 10717 10717 10718 10719 10722 10726 10729 10733 10737 10742 10748 10755 10762 10774 10800 10779 10777 10788 10789 10792 10798 10801 10802 10804 10805 10818 10816 10817 10815 10820 10819 10818 10818 10813 10814 10811 10804 10798 10793 10792 10784 10774 10771 10770
10702 10701 10701 10702 10702 10703 10707 10710 10713 10717 10724 10733 10740 10749 10768 10782 10756 10756 10774 10779 10781 10784 10787 10787 10791 10799 10801 10807 10805 10806 10810 10810 10807 10805 10802 10802 10801 10793 10789 10781 10782 10776 10771 10762 10756
10692 10690 10688 10688 10688 10688 10689 10691 10693 10698 10705 10714 10725 10738 10760 10748 10740 10755 10749 10764 10771 10769 10774 10776 10780 10788 10792 10794 10793 10795 10798 10799 10795 10797 10789 10791 10791 10783 10778 10772 10769 10765 10760 10756 10750
10678 10676 10675 10673 10674 10673 10675 10677 10674 10681 10684 10697 10709 10726 10740 10727 10727 10723 10743 10753 10753 10758 10762 10765 10770 10775 10780 10780 10780 10775 10789 10790 10782 10783 10780 10781 10782 10775 10770 10764 10759 10757 10753 10747 10739
10659 10657 10656 10657 10655 10656 10657 10659 10657 10664 10667 10681 10692 10710 10716 10705 10713 10719 10727 10730 10738 10743 10751 10754 10759 10766 10765 10763 10761 10774 10777 10777 10771 10771 10771 10771 10772 10765 10762 10758 10751 10745 10741 10739 10731
10639 10636 10633 10633 10633 10637 10639 10638 10635 10643 10655 10670 10678 10690 10689 10695 10696 10704 10708 10716 10723 10732 10738 10738 10750 10758 10743 10749 10755 10761 10766 10767 10763 10761 10765 10758 10761 10758 10753 10748 10746 10739 10733 10729 10721
10612 10610 10609 10608 10608 10612 10616 10614 10609 10625 10642 10653 10664 10676 10674 10675 10688 10686 10690 10702 10709 10718 10717 10728 10747 10729 10732 10740 10746 10751 10755 10755 10755 10752 10754 10754 10750 10745 10744 10741 10738 10730 10723 10717 10711
10581 10579 10577 10578 10581 10587 10589 10588 10587 10601 10628 10638 10649 10659 10656 10658 10678 10676 10676 10686 10696 10701 10708 10716 10720 10715 10728 10733 10738 10739 10742 10742 10747 10746 10742 10741 10738 10736 10735 10732 10730 10725 10722 10715 10707
10541 10543 10542 10542 10550 10552 10559 10560 10565 10581 10607 10636 10633 10647 10641 10639 10666 10658 10661 10670 10681 10691 10690 10702 10701 10709 10719 10725 10726 10729 10726 10735 10738 10737 10737 10735 10732 10730 10731 10727 10725 10721 10717 10707 10698
10492 10494 10498 10505 10508 10513 10524 10536 10543 10558 10582 10617 10613 10619 10618 10632 10648 10646 10636 10651 10666 10671 10678 10697 10686 10697 10708 10711 10714 10717 10720 10724 10726 10728 10729 10725 10730 10724 10725 10722 10720 10717 10711 10702 10694
10439 10442 10448 10453 10465 10470 10491 10504 10512 10530 10569 10598 10599 10601 10602 10616 10622 10616 10626 10636 10645 10657 10673 10677 10680 10692 10698 10696 10703 10703 10709 10713 10714 10719 10720 10715 10723 10717 10715 10717 10715 10711 10701 10695 10689
10400 10401 10407 10413 10413 10435 10454 10465 10482 10516 10561 10576 10561 10563 10569 10580 10588 10591 10599 10610 10638 10645 10664 10658 10671 10673 10679 10682 10691 10696 10697 10700 10708 10711 10705 10713 10714 10712 10710 10710 10708 10706 10696 10688 10684
10370 10371 10372 10377 10384 10403 10417 10430 10464 10518 10527 10535 10516 10519 10554 10561 10565 10565 10575 10591 10617 10633 10640 10652 10663 10668 10665 10674 10673 10680 10688 10694 10698 10700 10700 10707 10707 10707 10704 10702 10701 10696 10693 10686 10679
10346 10346 10350 10353 10358 10372 10384 10407 10457 10485 10489 10481 10474 10500 10518 10523 10528 10531 10553 10580 10599 10613 10627 10636 10650 10641 10652 10654 10661 10670 10680 10682 10690 10693 10694 10696 10700 10701 10699 10698 10696 10692 10688 10683 10677
10326 10326 10328 10330 10338 10349 10364 10386 10409 10424 10435 10427 10432 10463 10479 10502 10516 10512 10534 10578 10586 10597 10605 10623 10624 10629 10637 10638 10654 10666 10667 10677 10682 10681 10683 10689 10693 10696 10695 10695 10694 10690 10686 10680 10673
10311 10312 10312 10313 10320 10328 10336 10348 10364 10375 10384 10395 10402 10430 10455 10481 10502 10501 10546 10571 10578 10587 10595 10600 10612 10619 10615 10638 10649 10656 10662 10665 10666 10672 10677 10682 10687 10689 10690 10690 10688 10685 10682 10678 10671
10300 10299 10300 10298 10303 10308 10318 10328 10341 10354 10370 10384 10397 10418 10436 10453 10483 10510 10550 10554 10565 10567 10578 10594 10601 10603 10619 10629 10636 10639 10645 10649 10657 10667 10671 10677 10681 10682 10685 10685 10685 10682 10679 10673 10668
10288 10287 10288 10286 10289 10294 10301 10308 10320 10330 10342 10353 10377 10391 10404 10432 10470 10494 10521 10525 10525 10542 10566 10567 10581 10593 10600 10613 10620 10633 10641 10648 10654 10660 10668 10670 10671 10678 10681 10682 10680 10677 10675 10671 10666
10277 10276 10276 10274 10277 10281 10286 10291 10300 10311 10322 10332 10351 10371 10387 10414 10444 10471 10495 10501 10507 10530 10550 10537 10565 10586 10600 10612 10618 10628 10634 10642 10648 10657 10660 10664 10667 10673 10675 10678 10675 10675 10673 10668 10665
10266 10263 10262 10264 10264 10267 10271 10276 10283 10291 10302 10312 10333 10350 10369 10395 10422 10445 10475 10495 10502 10517 10534 10534 10559 10582 10589 10599 10610 10619 10622 10629 10641 10644 10654 10657 10661 10669 10672 10673 10672 10671 10668 10666 10665
10255 10252 10251 10250 10252 10254 10256 10262 10269 10279 10287 10298 10318 10335 10351 10376 10394 10423 10464 10480 10489 10508 10522 10533 10555 10573 10587 10597 10603 10612 10618 10628 10634 10639 10648 10652 10656 10661 10668 10669 10670 10667 10669 10664 10664
10244 10242 10240 10239 10240 10243 10247 10251 10258 10269 10273 10283 10299 10314 10332 10347 10371 10405 10435 10455 10472 10491 10505 10528 10550 10556 10582 10583 10589 10604 10612 10621 10628 10632 10642 10647 10647 10653 10663 10664 10666 10666 10666 10665 10662